Location: Eferding
(48.3167°N, 14.0167°E)
Time: 04:23:52
(UTC+00:00)

Lacrosse 4 Rocket - Pass Details

Date: 12 November 2019
Orbit: 543 x 616 km, 68.0° (Epoch: 12 December)

Event Time Altitude Azimuth Distance (km) Brightness Sun altitude
Rises 18:06:43 0° 205° (SSW) 2,718 5.1 -26.2°
Reaches altitude 10° 18:08:55 10° 203° (SSW) 1,820 4.2 -26.5°
Enters shadow 18:10:02 18° 201° (SSW) 1,375 3.5 -26.7°
